STAR ONE D2

Last updated on Tue Sep 16 2025 00:02:50 GMT+0000 (Coordinated Universal Time)

1 49055U 21069A 25258.10739498 -.00000280 00000+0 00000+0 0 9993 2 49055 0.0121 151.6229 0002927 21.0541 150.3131 1.00271370 15177
UTC large
Height (km)
Speed (km/s)
/
Latitude / Longitude
Inclination (degrees)
Orbital Period (minutes)
Azimuth
Elevation
Range (km)
Doppler Factor

Next 0 passes for location: London (51.5072 / 0.1276)

Sorry there are no passes over London.